Date String (YYYY-MM-DD hh:mm:ss) UTC,Instrument flags,Ambient pressure (hPa),Sample flow (lpm),Bypass flow (lpm),Sample temperature (°C),Ambient temperature (°C),ASC tube jacket temperature (°C),LED temperature (°C),Box temperature (°C),Sample RH (%),Span deviation,Mass concentration (μg/m³),Mass concentration (μg/m³),Mass concentration (μg/m³)
DateTimeUTC,F1_M11,P_M11,Q1_M11,Q2_M11,T1_M11,T2_M11,T3_M11,T4_M11,T5_M11,U1_M11,ZSPAN_M11,X0_M11,X2_M11,X1_M11
2022-07-04 01:00:00,,0825.2,5.01,0.00,29.2,28.0,00.0,37.9,31.2,30.2,0000.0,0004.40,0002.20,0001.61
2022-07-04 01:01:00,,0825.2,5.00,0.00,29.2,28.1,00.0,38.0,31.2,30.3,0000.0,0004.62,0002.23,0001.62
2022-07-04 01:02:00,,0825.2,4.99,0.00,29.3,28.2,00.0,38.0,31.3,30.1,0000.0,0004.63,0002.23,0001.62
2022-07-04 01:03:00,,0825.2,5.01,0.00,29.3,28.3,00.0,38.0,31.3,29.9,0000.0,0004.60,0002.20,0001.62
2022-07-04 01:04:00,,0825.2,5.00,0.00,29.3,28.4,00.0,38.0,31.4,29.8,0000.0,0004.66,0002.17,0001.62
2022-07-04 01:05:00,,0825.2,5.00,0.00,29.4,28.5,00.0,38.0,31.4,29.5,0000.0,0004.60,0002.14,0001.62
2022-07-04 01:06:00,,0825.2,5.00,0.00,29.4,28.4,00.0,38.1,31.4,29.4,0000.0,0004.57,0002.12,0001.63
2022-07-04 01:07:00,,0825.2,5.00,0.00,29.4,27.8,00.0,38.0,31.3,29.6,0000.0,0005.71,0002.13,0001.64
2022-07-04 01:08:00,,0825.3,5.00,0.00,29.4,27.4,00.0,38.0,31.2,29.6,0000.0,0005.63,0002.11,0001.64
2022-07-04 01:09:00,,0825.3,5.01,0.00,29.3,27.4,00.0,38.0,31.1,29.4,0000.0,0006.08,0002.11,0001.63
2022-07-04 01:10:00,,0825.3,5.00,0.00,29.3,27.4,00.0,38.0,31.1,29.9,0000.0,0006.21,0002.12,0001.62
2022-07-04 01:11:00,,0825.3,5.00,0.00,29.3,27.5,00.0,38.0,31.1,30.1,0000.0,0006.69,0002.15,0001.62
2022-07-04 01:12:00,,0825.3,5.01,0.00,29.3,27.7,00.0,38.0,31.2,30.2,0000.0,0006.81,0002.17,0001.61
2022-07-04 01:13:00,,0825.4,5.00,0.00,29.3,27.8,00.0,38.0,31.2,30.0,0000.0,0006.76,0002.16,0001.61
2022-07-04 01:14:00,,0825.4,5.00,0.00,29.3,27.9,00.0,38.0,31.2,29.8,0000.0,0006.55,0002.14,0001.59
2022-07-04 01:15:00,,0825.3,5.00,0.00,29.3,28.1,00.0,38.0,31.3,29.4,0000.0,0006.36,0002.12,0001.57
2022-07-04 01:16:00,,0825.3,4.99,0.00,29.3,28.2,00.0,38.1,31.3,29.2,0000.0,0006.40,0002.11,0001.55
2022-07-04 01:17:00,,0825.3,4.99,0.00,29.4,28.3,00.0,38.1,31.3,28.9,0000.0,0006.42,0002.11,0001.54
2022-07-04 01:18:00,,0825.4,4.99,0.00,29.4,28.4,00.0,38.1,31.4,28.5,0000.0,0005.17,0002.06,0001.50
2022-07-04 01:19:00,,0825.4,5.01,0.00,29.4,28.4,00.0,38.1,31.4,28.3,0000.0,0005.06,0002.04,0001.48
2022-07-04 01:20:00,,0825.4,5.01,0.00,29.4,28.5,00.0,38.1,31.4,27.8,0000.0,0004.17,0002.02,0001.47
2022-07-04 01:21:00,,0825.4,5.00,0.00,29.5,28.1,00.0,38.1,31.4,28.2,0000.0,0003.88,0002.02,0001.47
2022-07-04 01:22:00,,0825.4,4.99,0.00,29.4,27.5,00.0,38.1,31.3,27.7,0000.0,0003.57,0001.98,0001.44
2022-07-04 01:23:00,,0825.5,4.99,0.00,29.4,27.4,00.0,38.1,31.2,27.5,0000.0,0003.18,0001.92,0001.41
2022-07-04 01:24:00,,0825.4,5.00,0.00,29.4,27.4,00.0,38.1,31.2,27.6,0000.0,0003.04,0001.87,0001.39
2022-07-04 01:25:00,,0825.5,5.00,0.00,29.3,27.5,00.0,38.1,31.2,27.6,0000.0,0003.02,0001.85,0001.38
2022-07-04 01:26:00,,0825.5,5.00,0.00,29.3,27.7,00.0,38.1,31.2,27.2,0000.0,0003.02,0001.83,0001.37
2022-07-04 01:27:00,,0825.6,5.01,0.00,29.3,27.8,00.0,38.1,31.3,27.2,0000.0,0002.94,0001.81,0001.36
2022-07-04 01:28:00,,0825.6,5.00,0.00,29.4,27.9,00.0,38.1,31.3,27.4,0000.0,0002.87,0001.77,0001.35
2022-07-04 01:29:00,,0825.6,5.00,0.00,29.4,28.1,00.0,38.1,31.3,27.7,0000.0,0003.06,0001.82,0001.36
2022-07-04 01:30:00,,0825.7,5.00,0.00,29.4,28.2,00.0,38.1,31.3,27.5,0000.0,0003.03,0001.77,0001.35
2022-07-04 01:31:00,,0825.7,5.00,0.00,29.4,28.3,00.0,38.1,31.4,27.3,0000.0,0003.17,0001.74,0001.34
2022-07-04 01:32:00,,0825.8,5.00,0.00,29.5,28.4,00.0,38.1,31.4,27.3,0000.0,0003.16,0001.76,0001.33
2022-07-04 01:33:00,,0826.2,4.99,0.00,29.5,28.5,00.0,38.2,31.5,27.2,0000.0,0003.11,0001.75,0001.33
2022-07-04 01:34:00,,0826.2,5.00,0.00,29.5,28.5,00.0,38.2,31.5,27.3,0000.0,0003.22,0001.78,0001.33
2022-07-04 01:35:00,,0826.1,5.00,0.00,29.5,28.0,00.0,38.1,31.4,26.4,0000.0,0003.16,0001.78,0001.33
2022-07-04 01:36:00,,0825.7,5.00,0.00,29.5,27.2,00.0,38.1,31.3,25.3,0000.0,0003.11,0001.75,0001.32
2022-07-04 01:37:00,,0825.7,5.00,0.00,29.4,26.9,00.0,38.1,31.2,25.7,0000.0,0003.51,0001.75,0001.30
2022-07-04 01:38:00,,0825.7,5.00,0.00,29.3,26.9,00.0,38.1,31.1,25.8,0000.0,0003.50,0001.75,0001.29
2022-07-04 01:39:00,,0825.7,5.00,0.00,29.3,27.0,00.0,38.0,31.0,25.9,0000.0,0003.41,0001.74,0001.29
2022-07-04 01:40:00,,0825.7,5.00,0.00,29.2,27.2,00.0,38.0,31.0,26.0,0000.0,0003.21,0001.70,0001.28
2022-07-04 01:41:00,,0825.7,5.00,0.00,29.2,27.3,00.0,38.0,31.1,25.9,0000.0,0003.25,0001.76,0001.31
2022-07-04 01:42:00,,0825.8,5.00,0.00,29.2,27.5,00.0,38.0,31.1,25.9,0000.0,0003.22,0001.83,0001.36
2022-07-04 01:43:00,,0826.0,5.00,0.00,29.2,27.7,00.0,38.0,31.1,25.9,0000.0,0003.14,0001.81,0001.38
2022-07-04 01:44:00,,0825.8,5.00,0.00,29.3,27.8,00.0,38.0,31.2,25.9,0000.0,0003.17,0001.83,0001.41
2022-07-04 01:45:00,,0826.0,4.99,0.00,29.3,28.0,00.0,38.0,31.2,25.8,0000.0,0004.22,0001.83,0001.44
2022-07-04 01:46:00,,0825.9,5.00,0.00,29.3,28.1,00.0,38.1,31.3,25.8,0000.0,0004.32,0001.87,0001.46
2022-07-04 01:47:00,,0826.1,5.00,0.00,29.3,28.2,00.0,38.1,31.3,25.8,0000.0,0004.63,0001.98,0001.51
2022-07-04 01:48:00,,0826.2,5.00,0.00,29.4,28.3,00.0,38.1,31.4,25.8,0000.0,0004.38,0002.05,0001.55
2022-07-04 01:49:00,,0825.9,5.00,0.00,29.4,28.4,00.0,38.1,31.4,24.8,0000.0,0005.89,0002.10,0001.59
2022-07-04 01:50:00,,0825.9,5.00,0.00,29.4,28.5,00.0,38.1,31.4,24.7,0000.0,0006.12,0002.12,0001.63
2022-07-04 01:51:00,,0825.9,5.00,0.00,29.5,28.5,00.0,38.2,31.5,24.7,0000.0,0006.25,0002.17,0001.68
2022-07-04 01:52:00,,0826.0,4.99,0.00,29.5,28.0,00.0,38.1,31.4,24.7,0000.0,0006.38,0002.22,0001.70
2022-07-04 01:53:00,,0825.9,5.00,0.00,29.4,27.2,00.0,38.1,31.3,24.8,0000.0,0006.34,0002.21,0001.70
2022-07-04 01:54:00,,0825.9,5.01,0.00,29.4,26.9,00.0,38.0,31.1,24.9,0000.0,0006.34,0002.23,0001.71
2022-07-04 01:55:00,,0826.0,5.01,0.00,29.3,26.9,00.0,38.0,31.1,24.9,0000.0,0006.36,0002.24,0001.72
2022-07-04 01:56:00,,0826.0,4.99,0.00,29.3,27.0,00.0,38.0,31.0,24.9,0000.0,0005.35,0002.27,0001.74
2022-07-04 01:57:00,,0826.0,5.00,0.00,29.2,27.2,00.0,38.0,31.0,24.9,0000.0,0005.21,0002.26,0001.74
2022-07-04 01:58:00,,0825.9,5.00,0.00,29.2,27.4,00.0,38.0,31.1,25.3,0000.0,0005.16,0002.28,0001.75
2022-07-04 01:59:00,,0825.9,5.00,0.00,29.2,27.5,00.0,38.0,31.1,25.8,0000.0,0005.22,0002.32,0001.77
